| time (UTC) | temp C | wind direction | speed KPH | gust KPH | rain 1hr cm | rain 24hr cm | rain mn cm | humidity % | barometer mb |
| 20260509031533 | 13 | 205 | 0.0 | 0.0 | 0.00 | 0.00 | 0.00 | 60 | 1015.3 |
| 20260509030033 | 13 | 205 | 0.0 | 0.0 | 0.00 | 0.00 | 0.00 | 60 | 1015.1 |
| 20260509024535 | 13 | 205 | 0.0 | 0.0 | 0.00 | 0.00 | 0.00 | 60 | 1015.0 |
| 20260509023032 | 13 | 205 | 0.0 | 0.0 | 0.00 | 0.00 | 0.00 | 60 | 1014.8 |
| 20260509021532 | 13 | 205 | 0.0 | 1.6 | 0.00 | 0.00 | 0.00 | 60 | 1014.9 |
| 20260509020031 | 13 | 205 | 1.6 | 3.2 | 0.00 | 0.00 | 0.00 | 61 | 1014.7 |
| 20260509014532 | 13 | 205 | 1.6 | 3.2 | 0.00 | 0.00 | 0.00 | 62 | 1014.6 |
| 20260509013031 | 14 | 205 | 3.2 | 4.8 | 0.00 | 0.00 | 0.00 | 62 | 1014.7 |
| 20260509011529 | 14 | 185 | 0.0 | 0.0 | 0.00 | 0.00 | 0.00 | 63 | 1014.5 |
| 20260509010034 | 14 | 185 | 1.6 | 3.2 | 0.00 | 0.00 | 0.00 | 61 | 1014.5 |
| 20260509004529 | 15 | 185 | 0.0 | 3.2 | 0.00 | 0.00 | 0.00 | 59 | 1014.4 |
| 20260509003028 | 15 | 168 | 1.6 | 4.8 | 0.00 | 0.00 | 0.00 | 59 | 1014.4 |
| 20260509001529 | 15 | 167 | 1.6 | 6.4 | 0.00 | 0.00 | 0.00 | 58 | 1014.4 |
| 20260509000025 | 15 | 184 | 3.2 | 6.4 | 0.00 | 0.00 | 0.00 | 58 | 1014.4 |
| 20260508234524 | 16 | 183 | 1.6 | 4.8 | 0.00 | 0.00 | 0.00 | 58 | 1014.3 |
| 20260508233029 | 16 | 182 | 1.6 | 4.8 | 0.00 | 0.00 | 0.00 | 57 | 1014.2 |
| 20260508231524 | 16 | 189 | 0.0 | 6.4 | 0.00 | 0.00 | 0.00 | 56 | 1014.2 |
| 20260508230023 | 17 | 175 | 0.0 | 6.4 | 0.00 | 0.00 | 0.00 | 55 | 1014.5 |
| 20260508224524 | 17 | 182 | 0.0 | 6.4 | 0.00 | 0.00 | 0.00 | 54 | 1014.3 |
| 20260508223022 | 17 | 181 | 0.0 | 3.2 | 0.00 | 0.00 | 0.00 | 55 | 1014.3 |
| 20260508221525 | 17 | 178 | 0.0 | 6.4 | 0.00 | 0.00 | 0.00 | 53 | 1014.3 |
| 20260508220021 | 18 | 175 | 1.6 | 8.0 | 0.00 | 0.00 | 0.00 | 52 | 1014.1 |
| 20260508214525 | 18 | 172 | 3.2 | 9.7 | 0.00 | 0.00 | 0.00 | 51 | 1014.2 |
| 20260508213019 | 18 | 200 | 1.6 | 11.3 | 0.00 | 0.00 | 0.00 | 50 | 1014.1 |
| 20260508211519 | 18 | 205 | 1.6 | 11.3 | 0.00 | 0.00 | 0.00 | 48 | 1014.3 |
| 20260508210030 | 18 | 236 | 8.0 | 16.1 | 0.00 | 0.00 | 0.00 | 44 | 1014.3 |
| 20260508204518 | 18 | 224 | 3.2 | 12.9 | 0.00 | 0.00 | 0.00 | 45 | 1014.3 |
| 20260508203017 | 18 | 186 | 3.2 | 11.3 | 0.00 | 0.00 | 0.00 | 46 | 1014.2 |
| 20260508201517 | 18 | 238 | 3.2 | 11.3 | 0.00 | 0.00 | 0.00 | 44 | 1014.6 |
| 20260508200016 | 18 | 194 | 4.8 | 14.5 | 0.00 | 0.00 | 0.00 | 46 | 1014.5 |
| 20260508194515 | 18 | 188 | 4.8 | 20.9 | 0.00 | 0.00 | 0.00 | 42 | 1014.6 |
| 20260508193015 | 19 | 237 | 4.8 | 14.5 | 0.00 | 0.00 | 0.00 | 44 | 1015.1 |
| 20260508191513 | 19 | 191 | 8.0 | 14.5 | 0.00 | 0.00 | 0.00 | 42 | 1015.4 |
| 20260508190013 | 18 | 278 | 8.0 | 12.9 | 0.00 | 0.00 | 0.00 | 41 | 1015.6 |
| 20260508184518 | 18 | 123 | 4.8 | 16.1 | 0.00 | 0.00 | 0.00 | 43 | 1015.7 |
| 20260508183010 | 18 | 243 | 3.2 | 14.5 | 0.00 | 0.00 | 0.00 | 48 | 1015.9 |
| 20260508181508 | 18 | 214 | 3.2 | 14.5 | 0.00 | 0.00 | 0.00 | 47 | 1016.1 |
| 20260508180008 | 18 | 173 | 6.4 | 12.9 | 0.00 | 0.03 | 0.00 | 40 | 1016.4 |
| 20260508174505 | 17 | 173 | 4.8 | 14.5 | 0.00 | 0.03 | 0.00 | 44 | 1016.6 |
| 20260508173005 | 17 | 196 | 9.7 | 16.1 | 0.00 | 0.03 | 0.00 | 41 | 1016.6 |
| 20260508171504 | 17 | 157 | 4.8 | 14.5 | 0.00 | 0.03 | 0.00 | 49 | 1016.9 |
| 20260508170003 | 17 | 252 | 6.4 | 16.1 | 0.00 | 0.03 | 0.00 | 45 | 1017.0 |
| 20260508164604 | 17 | 241 | 4.8 | 12.9 | 0.00 | 0.03 | 0.00 | 46 | 1017.3 |
| 20260508164502 | 17 | 164 | 3.2 | 12.9 | 0.00 | 0.03 | 0.00 | 46 | 1017.3 |
| 20260508163107 | 16 | 235 | 3.2 | 11.3 | 0.00 | 0.03 | 0.00 | 47 | 1017.5 |
| 20260508161559 | 16 | 244 | 3.2 | 17.7 | 0.00 | 0.03 | 0.00 | 47 | 1017.7 |
| 20260508160056 | 16 | 153 | 3.2 | 12.9 | 0.00 | 0.03 | 0.00 | 49 | 1017.9 |
| 20260508154556 | 16 | 134 | 4.8 | 11.3 | 0.00 | 0.03 | 0.00 | 48 | 1017.9 |
| 20260508153106 | 16 | 215 | 3.2 | 16.1 | 0.00 | 0.03 | 0.00 | 48 | 1018.1 |
| 20260508151556 | 16 | 55 | 3.2 | 12.9 | 0.00 | 0.03 | 0.00 | 51 | 1018.2 |
| 20260508150050 | 16 | 235 | 1.6 | 8.0 | 0.00 | 0.03 | 0.00 | 49 | 1018.2 |
| 20260508144548 | 15 | 176 | 1.6 | 12.9 | 0.00 | 0.03 | 0.00 | 52 | 1018.1 |
| 20260508143103 | 15 | 105 | 1.6 | 14.5 | 0.00 | 0.03 | 0.00 | 54 | 1018.2 |
| 20260508141551 | 15 | 155 | 3.2 | 9.7 | 0.00 | 0.03 | 0.00 | 52 | 1018.1 |
| 20260508140043 | 14 | 91 | 3.2 | 14.5 | 0.00 | 0.03 | 0.00 | 51 | 1018.2 |
| 20260508134541 | 14 | 74 | 4.8 | 9.7 | 0.00 | 0.05 | 0.00 | 53 | 1018.5 |
| 20260508133036 | 13 | 288 | 0.0 | 0.0 | 0.00 | 0.05 | 0.00 | 54 | 1018.5 |
| 20260508131532 | 12 | 288 | 0.0 | 0.0 | 0.00 | 0.05 | 0.00 | 54 | 1018.4 |
| 20260508130031 | 11 | 288 | 0.0 | 0.0 | 0.00 | 0.05 | 0.00 | 54 | 1018.4 |
| 20260508124532 | 11 | 313 | 0.0 | 0.0 | 0.00 | 0.28 | 0.00 | 55 | 1018.2 |
| 20260508123028 | 11 | 337 | 0.0 | 0.0 | 0.00 | 0.28 | 0.00 | 52 | 1017.8 |
| 20260508121525 | 10 | 337 | 0.0 | 4.8 | 0.00 | 0.28 | 0.00 | 50 | 1017.6 |
| 20260508120023 | 9 | 337 | 1.6 | 4.8 | 0.00 | 0.36 | 0.00 | 49 | 1017.5 |
| 20260508114523 | 9 | 337 | 1.6 | 4.8 | 0.00 | 0.36 | 0.00 | 47 | 1017.0 |
| 20260508113018 | 8 | 337 | 3.2 | 4.8 | 0.00 | 0.36 | 0.00 | 42 | 1017.0 |
| 20260508111517 | 8 | 337 | 3.2 | 6.4 | 0.00 | 0.36 | 0.00 | 41 | 1016.6 |
| 20260508110027 | 8 | 337 | 3.2 | 6.4 | 0.00 | 0.66 | 0.00 | 40 | 1016.1 |
| 20260508104516 | 8 | 337 | 1.6 | 6.4 | 0.00 | 0.66 | 0.00 | 38 | 1016.0 |
| 20260508103026 | 8 | 340 | 6.4 | 9.7 | 0.00 | 0.66 | 0.00 | 37 | 1015.5 |
| 20260508101511 | 7 | 346 | 4.8 | 9.7 | 0.00 | 0.66 | 0.00 | 34 | 1015.4 |
| 20260508100006 | 7 | 11 | 9.7 | 12.9 | 0.00 | 1.07 | 0.00 | 38 | 1015.3 |
| 20260508094503 | 7 | 311 | 4.8 | 8.0 | 0.00 | 1.07 | 0.00 | 38 | 1015.1 |
| 20260508093101 | 7 | 317 | 4.8 | 6.4 | 0.00 | 1.07 | 0.00 | 38 | 1014.9 |
| 20260508091614 | 8 | 334 | 4.8 | 9.7 | 0.00 | 1.07 | 0.00 | 38 | 1014.5 |
| 20260508090059 | 7 | 355 | 4.8 | 8.0 | 0.00 | 1.07 | 0.00 | 38 | 1014.7 |
| 20260508084557 | 8 | 330 | 4.8 | 9.7 | 0.00 | 1.22 | 0.00 | 38 | 1014.5 |
| 20260508083056 | 8 | 307 | 4.8 | 8.0 | 0.00 | 1.22 | 0.00 | 39 | 1014.4 |
| 20260508081611 | 8 | 316 | 6.4 | 9.7 | 0.00 | 1.22 | 0.00 | 39 | 1014.4 |
| 20260508080055 | 8 | 314 | 6.4 | 9.7 | 0.00 | 1.22 | 0.00 | 39 | 1014.2 |
| 20260508074551 | 8 | 286 | 3.2 | 6.4 | 0.00 | 1.63 | 0.00 | 42 | 1014.2 |
| 20260508073050 | 8 | 300 | 6.4 | 9.7 | 0.00 | 1.63 | 0.00 | 43 | 1014.3 |
| 20260508071547 | 8 | 315 | 4.8 | 8.0 | 0.00 | 1.63 | 0.00 | 46 | 1014.3 |
| 20260508070044 | 8 | 315 | 3.2 | 8.0 | 0.00 | 1.63 | 0.00 | 54 | 1014.3 |
| 20260508064541 | 8 | 330 | 6.4 | 9.7 | 0.00 | 2.54 | 0.00 | 59 | 1014.2 |
| 20260508063039 | 9 | 315 | 6.4 | 8.0 | 0.00 | 2.54 | 0.00 | 62 | 1014.1 |
| 20260508061535 | 10 | 303 | 4.8 | 8.0 | 0.00 | 2.54 | 0.00 | 63 | 1014.1 |
| 20260508060046 | 10 | 305 | 3.2 | 6.4 | 0.00 | 2.54 | 0.00 | 62 | 1014.2 |
| 20260508054607 | 10 | 305 | 1.6 | 6.4 | 0.00 | 3.02 | 0.00 | 62 | 1014.1 |
| 20260508053044 | 10 | 171 | 0.0 | 3.2 | 0.00 | 3.02 | 0.00 | 61 | 1014.1 |
| 20260508051528 | 10 | 171 | 0.0 | 3.2 | 0.00 | 3.02 | 0.00 | 60 | 1014.2 |
| 20260508050025 | 11 | 171 | 0.0 | 6.4 | 0.00 | 3.81 | 0.00 | 60 | 1014.1 |
| 20260508044522 | 11 | 239 | 1.6 | 4.8 | 0.00 | 3.81 | 0.00 | 60 | 1014.0 |
| 20260508043030 | 11 | 304 | 8.0 | 16.1 | 0.00 | 3.81 | 0.00 | 57 | 1013.7 |
| 20260508041516 | 12 | 320 | 11.3 | 17.7 | 0.00 | 3.81 | 0.00 | 57 | 1013.6 |
| 20260508040111 | 12 | 314 | 11.3 | 19.3 | 0.00 | 3.81 | 0.00 | 56 | 1013.6 |
| 20260508034512 | 12 | 303 | 12.9 | 17.7 | 0.00 | 3.84 | 3.81 | 55 | 1013.5 |
| 20260508033013 | 12 | 329 | 9.7 | 17.7 | 0.00 | 3.84 | 3.81 | 56 | 1013.5 |